ECMWFFLT1_700_spd_132.txt.gz
Wind_Speed
18 16 13 13 13 12 12 11 11 11 10 9 9 11 12 12 12 13 14 15 16 17 16 15 13 12 13 13 15 16 17 18 19 20 21 22 22 22 23 24 23 21 21 22 23 26 28 29 26 25 25 26 26 27 27 27 26 26 26 26 27 26 25
22 19 16 16 15 14 13 12 12 11 10 10 10 12 12 12 13 13 15 16 16 15 14 13 12 12 13 14 15 16 16 17 19 20 21 22 23 24 24 24 22 21 20 20 22 23 26 29 29 27 25 26 27 26 25 25 25 26 26 26 27 26 25
23 20 18 18 17 15 14 13 11 10 11 11 11 12 12 13 13 15 15 15 15 13 13 13 13 14 14 15 15 16 17 17 19 20 22 22 23 24 24 24 22 21 20 21 22 24 25 27 29 28 27 27 27 26 24 23 25 27 26 25 26 25 23
23 19 18 18 17 16 15 12 11 11 12 13 13 13 13 14 15 16 16 15 13 12 13 13 14 14 15 15 16 16 17 18 19 21 22 23 23 23 23 22 21 21 22 22 23 25 26 27 29 29 27 26 27 26 23 22 24 26 24 23 23 23 22
22 18 16 17 17 15 13 10 10 12 13 14 14 14 15 16 17 17 16 15 13 13 13 14 14 15 15 16 17 17 18 19 20 21 22 22 23 22 21 20 20 20 21 21 23 26 26 26 28 28 27 27 27 25 23 22 24 24 23 22 22 22 22
22 17 16 16 16 13 11 10 11 12 14 15 15 16 16 17 18 17 16 15 14 14 14 15 15 15 16 16 17 18 19 20 21 21 22 22 22 21 20 19 20 20 20 21 22 24 25 25 26 27 26 26 26 26 24 23 23 22 21 21 21 21 21
22 18 16 16 14 12 12 11 11 13 15 16 16 16 17 18 18 17 16 15 15 15 16 16 16 16 17 18 18 19 20 20 21 22 22 22 21 19 18 18 18 20 21 22 22 23 25 25 26 28 27 25 25 25 25 24 23 22 20 19 20 21 21
23 17 14 15 14 12 13 12 12 14 16 16 16 16 18 18 18 17 16 15 15 16 17 17 18 18 19 19 19 20 20 21 22 22 22 21 19 17 16 17 18 19 20 21 22 23 24 25 26 27 27 26 24 24 23 22 23 22 20 19 19 20 21
21 15 12 14 13 13 13 13 13 15 16 16 16 17 18 19 18 17 16 16 16 17 18 19 19 20 20 20 20 20 20 21 21 22 21 20 18 15 15 16 18 19 20 21 22 22 23 24 25 25 25 25 26 26 24 22 21 21 20 20 19 20 21
18 13 12 14 13 14 14 14 15 15 16 16 16 18 19 19 18 16 16 16 17 18 19 20 20 20 21 20 21 21 21 21 22 22 21 20 17 15 14 16 17 19 20 21 22 22 23 23 23 23 22 23 25 27 26 24 21 19 20 20 20 20 21
17 15 14 15 15 15 15 15 15 15 16 16 17 18 19 19 17 16 16 16 17 18 19 20 20 20 20 20 20 21 21 22 22 22 22 21 19 17 16 16 17 17 19 21 22 23 24 24 22 22 22 22 24 24 25 26 22 17 18 20 20 21 21
19 17 17 17 16 16 16 15 16 16 16 16 17 18 19 18 17 16 16 16 17 18 19 19 20 19 20 20 20 21 22 22 23 23 23 22 21 20 18 17 17 17 19 21 23 24 25 24 23 22 21 22 22 22 23 25 23 16 17 20 21 22 23
20 18 18 18 17 17 16 16 16 16 17 17 17 18 19 18 17 16 16 16 18 18 19 19 19 19 20 20 21 22 23 24 24 23 24 24 23 21 19 19 19 19 19 20 22 23 24 24 22 21 21 21 21 21 21 23 24 19 18 21 22 22 23
20 19 19 19 18 17 17 17 17 17 17 17 18 18 19 18 17 16 16 17 18 19 19 19 20 20 21 21 22 23 24 24 25 24 24 24 22 21 20 20 20 19 19 20 21 22 23 23 22 21 22 21 20 20 20 21 22 21 19 19 21 21 21
20 20 20 19 18 17 17 17 17 17 18 18 18 18 19 18 16 16 17 18 19 19 20 20 20 21 21 22 23 24 24 25 25 24 24 24 22 21 21 20 19 18 19 19 21 22 23 23 22 21 21 21 20 20 20 20 21 22 20 18 18 19 19
19 20 20 19 18 18 18 18 18 18 18 18 18 18 19 17 16 16 17 19 20 20 20 21 21 21 21 22 23 24 25 26 25 24 23 22 20 20 19 18 18 18 19 20 21 21 22 22 21 20 20 21 21 20 20 20 20 21 22 19 16 16 16
19 20 19 19 18 19 19 19 19 19 19 18 18 18 18 17 16 17 18 19 20 21 21 21 21 21 22 22 23 24 25 26 25 24 23 21 19 18 19 18 19 20 20 20 21 21 21 21 20 18 18 19 20 20 19 19 20 21 21 18 16 15 15
20 20 20 19 19 19 19 19 19 19 18 18 18 18 17 17 17 18 19 20 20 21 21 21 21 21 22 22 23 24 25 25 24 23 22 21 20 20 20 20 20 20 20 19 19 19 19 19 19 18 18 18 19 18 18 18 19 20 19 18 17 16 16
23 22 21 20 19 19 19 19 19 18 17 17 17 17 17 16 17 18 19 20 20 21 21 21 21 21 21 22 23 24 24 25 24 23 22 22 22 21 21 20 19 18 17 16 16 17 17 18 18 18 18 18 18 18 18 18 18 18 18 18 17 17 17
24 23 22 21 21 20 20 19 18 17 16 16 17 16 16 16 16 18 18 19 20 21 21 21 21 21 21 22 23 23 24 24 24 23 22 22 22 20 19 18 17 15 15 15 15 15 16 17 18 18 18 18 18 18 18 17 17 17 17 17 16 15 16
23 22 21 21 21 21 20 18 17 16 15 15 15 15 15 15 16 17 18 19 20 21 21 21 21 21 21 22 22 23 23 23 23 22 22 21 20 19 17 16 16 15 14 14 14 14 14 15 16 17 18 17 17 18 18 18 17 17 16 16 16 15 15
19 19 20 21 21 20 18 17 16 15 15 14 14 14 14 15 15 16 18 19 20 21 21 21 21 21 21 22 22 23 23 22 22 21 20 20 18 17 16 15 15 15 14 14 13 13 13 13 14 14 16 16 16 16 17 17 16 16 16 16 16 15 15
18 19 20 19 18 17 16 16 15 14 13 13 13 13 13 14 15 16 18 20 21 21 21 21 21 21 21 21 21 22 21 20 20 19 18 18 17 16 16 15 14 14 13 13 13 13 13 13 13 13 14 15 15 15 16 16 15 15 15 15 16 15 14
17 16 15 15 15 15 15 15 14 13 13 12 12 13 13 14 15 17 19 20 21 21 20 20 20 20 20 20 20 20 19 18 17 17 16 15 14 14 14 14 13 13 12 12 12 12 12 13 13 13 13 14 15 15 15 15 15 15 15 15 15 14 13
15 13 12 13 14 15 15 15 14 12 12 12 12 12 13 14 15 17 19 20 20 20 20 20 20 19 19 19 19 18 17 16 15 14 13 12 12 12 12 13 12 12 12 12 12 13 13 13 13 13 13 14 15 15 15 15 15 15 15 15 15 14 13
18 15 14 14 15 15 14 14 13 12 12 12 12 12 13 14 16 18 19 20 20 20 20 20 19 18 18 19 18 17 15 14 13 13 12 12 11 11 12 12 12 12 12 12 12 13 14 14 14 14 14 15 15 15 15 16 17 16 16 15 15 14 13
23 19 15 15 15 15 14 14 13 13 13 12 12 12 13 14 16 18 19 19 20 20 19 19 18 17 17 17 16 15 14 13 13 13 12 12 12 12 12 12 12 12 12 12 12 13 14 14 14 14 14 15 15 14 15 16 16 15 15 15 14 14 14
25 19 16 16 16 15 15 14 13 13 13 12 12 12 13 15 16 18 19 19 19 19 18 17 16 16 16 16 15 14 14 13 13 13 13 13 13 13 13 13 13 12 12 11 11 12 12 12 12 12 13 13 13 13 12 12 13 13 13 13 13 13 14
23 19 17 16 16 16 15 14 14 14 13 12 12 12 13 15 16 18 18 18 18 17 16 16 15 15 15 14 14 14 13 13 13 13 13 13 13 13 13 13 12 12 12 11 11 11 11 11 11 11 11 11 12 12 11 11 12 12 12 12 12 12 13
21 19 18 17 16 16 16 15 14 14 12 12 12 12 13 15 16 17 17 17 16 15 15 15 15 15 15 14 13 13 13 13 13 13 12 12 12 12 12 12 11 11 12 12 12 11 11 10 10 10 10 10 11 11 11 12 12 11 11 11 11 11 12
21 19 18 18 17 17 16 15 14 13 12 11 11 12 13 15 16 16 16 15 14 14 14 14 14 14 14 14 13 13 12 12 12 12 11 11 11 11 10 10 10 10 11 11 10 10 9 9 9 10 10 11 11 12 12 11 11 11 11 11 11 11 11
20 19 18 18 18 17 16 15 14 12 11 11 11 12 13 14 15 15 14 13 13 13 13 14 13 13 13 13 12 12 12 11 11 11 10 10 9 8 8 9 9 9 9 8 8 8 9 10 11 12 12 12 13 12 11 11 11 11 11 11 10 10 9
20 19 19 18 18 17 16 15 13 12 11 11 12 12 13 13 13 13 12 12 12 12 12 12 12 12 12 12 11 11 11 10 9 8 8 7 7 8 8 8 8 8 8 9 10 11 12 13 13 14 14 13 13 13 12 12 12 12 11 10 10 10 9
20 19 19 18 18 17 15 14 13 12 11 11 11 12 12 13 12 11 11 11 11 11 11 10 11 11 10 10 10 10 9 7 6 5 6 8 9 9 8 7 7 9 10 11 12 12 13 13 13 14 14 13 13 13 13 13 13 13 13 13 13 12 11
20 19 18 18 17 16 15 13 12 11 10 10 11 11 11 11 11 11 10 10 10 10 9 9 9 9 9 9 8 6 5 3 4 7 8 9 8 8 7 7 7 9 10 11 12 12 12 12 12 13 13 13 13 13 14 14 14 14 14 15 14 13 12
19 19 18 17 16 15 14 12 11 10 10 10 10 10 10 10 10 9 9 10 9 9 8 8 9 8 7 5 3 3 3 4 7 8 8 7 6 6 6 7 8 8 9 10 11 12 13 13 13 13 14 14 14 14 14 15 15 15 15 15 13 12 12
19 18 17 16 15 14 13 11 10 10 10 10 10 10 9 9 9 9 9 8 8 8 8 8 8 7 4 1 2 4 5 6 7 7 5 5 5 4 4 6 7 8 9 10 11 12 13 13 14 14 14 14 15 15 15 15 15 15 14 13 12 11 11

ECMWFFLT1_700_spd_135.txt.gz
Wind_Speed
18 18 18 19 19 19 20 16 12 9 7 6 6 7 8 9 10 11 12 13 13 13 13 12 11 11 11 13 14 15 16 16 17 17 18 19 19 19 20 21 20 20 20 19 19 21 23 21 17 16 19 21 22 22 23 22 22 24 22 19 19 20 21
19 19 19 19 19 21 20 15 10 8 6 5 6 7 8 9 10 11 13 13 12 11 10 10 10 11 12 13 13 14 15 16 17 18 19 19 20 20 20 20 19 18 18 18 18 19 22 24 23 21 20 21 21 20 22 23 21 22 23 22 21 20 19
20 19 19 20 19 18 15 10 8 7 5 6 6 7 8 9 10 12 13 12 10 9 9 10 11 12 12 13 14 15 15 16 17 18 19 20 20 21 21 21 19 17 15 14 15 18 20 22 24 25 24 24 23 21 21 22 22 22 23 23 23 22 18
21 20 20 19 18 17 15 9 7 6 6 7 7 7 9 9 10 12 12 10 9 9 9 10 11 12 13 14 15 16 17 17 18 19 20 21 21 21 21 20 18 16 15 14 14 17 20 22 24 25 25 26 26 24 22 22 21 22 23 22 22 22 19
22 21 21 18 16 16 15 9 6 6 7 7 7 8 9 9 10 12 11 10 10 10 10 11 11 12 14 15 16 17 18 18 19 20 21 21 21 21 21 19 17 16 15 16 17 18 20 22 25 26 26 27 28 26 23 23 22 21 21 21 21 21 19
21 21 20 16 15 15 13 9 6 6 7 7 8 9 9 9 11 12 11 10 10 11 11 12 12 13 14 15 16 17 18 19 20 20 21 21 21 21 21 19 17 17 16 17 18 19 20 22 25 27 27 27 28 26 24 23 23 21 20 19 20 20 18
20 19 18 16 15 16 14 10 7 7 7 7 8 10 10 9 11 12 11 10 11 11 12 13 14 14 15 16 17 18 19 19 20 21 21 21 22 22 21 20 18 17 17 18 19 20 21 22 24 26 27 27 27 25 23 23 23 22 21 19 19 19 18
18 18 18 18 16 16 15 11 7 7 7 8 9 11 10 10 12 13 12 11 11 12 12 13 14 15 16 17 17 18 19 20 20 21 22 22 23 23 22 21 18 17 17 18 20 21 22 23 24 26 28 29 28 26 24 22 21 21 21 21 19 18 17
20 19 19 19 17 17 15 11 8 7 7 9 10 11 11 11 12 13 13 12 12 12 13 14 15 16 16 17 18 18 19 21 22 22 23 23 23 23 22 21 19 17 17 18 19 21 23 24 25 26 27 28 29 29 27 23 19 19 20 21 20 18 18
22 21 22 22 20 17 15 11 9 8 8 10 11 12 12 11 12 14 14 13 13 13 14 15 16 17 17 18 18 19 20 22 23 23 24 24 24 23 22 21 20 18 18 19 19 21 22 24 25 26 26 27 27 29 29 26 21 18 18 19 19 19 19
23 24 24 23 19 16 15 11 9 9 9 11 12 12 12 12 13 14 14 14 13 14 15 16 17 17 18 18 19 20 21 22 23 24 25 25 25 24 23 22 21 20 19 19 19 20 22 23 24 25 25 25 25 26 28 27 23 19 18 18 18 19 20
22 23 22 19 17 16 13 10 9 10 11 13 13 13 13 12 13 14 15 14 13 14 15 16 17 17 18 19 19 20 21 22 24 24 25 26 25 25 24 23 22 21 20 19 19 19 21 23 25 25 24 24 24 24 25 26 24 20 19 19 18 19 22
20 21 20 18 16 14 11 10 10 11 12 13 13 13 13 12 13 14 15 14 13 14 16 17 17 18 18 19 20 21 21 22 23 24 25 26 26 25 23 22 21 21 20 18 18 18 21 24 25 25 24 22 22 23 23 25 25 21 19 20 20 20 22
22 23 21 18 14 11 11 11 11 12 13 13 14 14 13 13 13 14 15 14 13 15 17 17 18 18 19 20 20 21 21 22 23 24 25 25 25 24 23 21 21 20 20 19 19 20 21 24 25 25 24 21 20 21 22 24 24 21 18 18 20 21 22
25 24 20 15 12 11 12 12 12 13 14 14 14 14 13 13 13 14 14 13 14 15 17 17 18 19 19 20 21 21 21 22 23 24 25 24 24 23 22 21 21 21 22 21 21 21 21 22 22 22 21 20 19 20 22 23 24 22 18 17 19 19 20
23 21 17 12 11 12 13 14 14 14 14 15 14 14 13 13 13 13 13 13 14 16 16 17 18 19 20 20 21 21 22 22 23 24 24 24 23 22 21 20 21 21 21 21 20 20 20 20 20 20 19 20 20 20 22 23 24 24 21 18 18 19 18
20 17 13 11 12 14 14 15 15 15 16 15 15 14 13 12 12 13 13 13 14 15 16 18 19 20 21 21 21 22 22 23 23 24 24 24 23 22 21 20 20 20 19 19 18 18 18 18 19 19 19 20 20 20 22 23 23 24 23 20 19 19 19
16 14 13 12 12 13 14 15 15 16 16 16 15 14 13 12 12 12 12 13 13 14 16 18 20 21 21 22 22 22 23 23 24 25 25 24 23 22 21 20 19 19 18 18 17 17 17 17 18 19 19 20 20 20 21 22 22 22 23 21 20 19 19
16 14 14 13 13 14 15 16 17 17 16 16 14 13 12 11 11 11 11 12 12 14 17 19 20 21 22 23 23 23 24 24 24 25 25 24 24 23 22 20 19 19 18 17 17 17 17 17 17 18 18 18 19 19 19 20 21 21 21 21 21 20 20
18 17 17 16 15 15 17 18 18 18 16 15 13 12 12 11 10 10 10 11 12 14 17 19 21 22 22 23 23 24 24 24 24 24 24 24 23 22 22 20 19 19 18 17 16 16 16 16 16 16 16 17 18 18 18 19 19 20 19 19 19 19 19
21 20 19 18 17 17 18 19 19 18 16 14 13 12 11 10 9 9 9 10 12 15 17 19 21 22 23 23 24 24 24 24 24 24 23 22 22 22 21 20 19 18 17 17 16 15 15 15 15 16 16 17 17 18 18 19 19 19 18 17 18 18 18
20 20 18 17 17 17 18 18 17 16 14 13 12 12 11 9 8 8 9 10 13 15 18 20 21 22 23 23 23 23 23 24 24 23 22 21 20 20 20 19 18 17 16 16 15 14 14 14 14 15 16 17 17 18 18 18 18 18 17 17 17 17 18
18 17 16 16 17 17 17 16 15 13 12 12 12 11 10 8 8 8 9 11 13 16 18 20 21 22 22 22 22 22 22 23 23 22 21 20 19 18 18 17 16 16 16 15 15 15 15 14 14 15 15 16 17 18 18 18 18 18 18 17 17 17 17
16 15 15 15 15 15 14 13 13 12 11 11 11 10 9 8 8 8 9 11 14 16 18 20 21 21 21 21 20 20 21 21 21 20 19 18 18 17 17 16 16 16 15 15 16 16 16 15 15 15 15 16 17 17 18 18 17 17 18 18 18 18 18
15 15 14 14 12 11 10 11 11 10 10 10 10 10 9 9 8 8 10 12 14 16 18 20 21 21 20 19 19 20 20 20 19 19 18 18 17 17 17 16 16 16 15 15 16 16 16 16 15 15 15 15 16 16 17 17 16 16 17 18 18 18 17
16 15 14 13 11 8 8 10 10 10 10 11 11 10 10 9 8 9 10 12 14 16 18 20 20 19 19 18 18 19 19 19 18 18 17 17 17 17 17 16 16 16 16 15 16 16 16 15 15 16 15 15 16 16 16 16 16 16 16 16 16 16 16
17 16 16 14 11 8 9 10 10 11 11 11 11 10 10 9 8 9 10 12 14 16 18 19 19 18 18 18 18 18 18 17 17 17 17 17 17 17 17 16 16 16 15 15 15 15 15 15 15 16 16 16 15 15 16 16 15 15 14 15 15 15 15
19 19 19 16 12 9 9 10 11 11 11 11 11 10 9 8 8 9 10 12 15 16 17 18 17 17 17 17 18 18 17 16 16 16 16 16 16 16 16 15 15 15 15 15 14 14 15 15 16 16 16 16 16 16 16 15 15 14 14 14 14 14 14
23 23 21 17 13 11 11 10 11 11 11 11 11 10 9 8 8 9 11 12 14 15 16 17 17 16 16 16 16 17 16 15 15 15 15 16 16 15 15 15 14 14 13 13 13 13 14 14 14 14 14 14 14 14 14 14 14 14 14 14 14 14 14
27 24 21 17 14 12 11 11 11 12 12 12 11 10 9 9 9 9 11 12 13 14 15 16 16 16 16 14 13 14 14 14 14 14 15 15 15 14 14 13 12 12 11 12 12 12 11 11 11 12 12 12 13 14 14 14 14 14 13 13 13 14 14
27 23 19 16 13 12 11 11 12 12 12 12 11 11 10 9 9 10 10 11 13 13 14 15 16 16 15 14 12 12 13 13 13 13 13 13 12 11 10 10 10 10 10 11 10 10 10 10 11 12 13 13 14 15 15 15 15 15 14 14 14 14 14
24 21 18 15 13 12 12 12 13 12 12 12 12 11 10 10 10 10 10 11 12 12 13 14 15 14 14 14 12 11 12 12 12 12 11 10 8 8 8 9 9 9 9 9 9 9 10 11 12 13 13 14 14 14 14 15 15 15 16 15 15 15 15
21 19 17 15 14 13 13 13 13 12 12 12 13 11 10 10 10 10 10 10 11 12 12 13 13 12 11 11 12 12 11 11 10 8 7 6 6 8 9 9 8 8 8 9 9 10 11 11 12 13 13 13 13 13 14 14 14 14 15 15 16 16 16
20 18 17 15 14 14 13 12 12 12 12 13 12 11 11 10 10 9 9 10 10 11 11 12 12 11 10 10 10 11 10 8 6 4 4 5 7 8 8 8 8 8 9 9 10 10 11 11 12 12 12 12 13 14 14 14 14 14 15 16 16 17 17
20 19 17 16 15 13 12 11 12 13 13 13 12 12 11 10 9 9 9 9 9 10 10 10 10 10 10 10 9 8 6 5 3 2 4 6 8 8 8 8 8 9 9 9 9 9 10 11 12 12 12 13 14 15 15 15 16 16 16 16 16 16 16
21 19 17 16 15 12 11 12 13 13 13 13 13 12 11 10 9 8 8 8 8 8 8 8 8 8 9 8 7 5 3 2 2 3 5 7 8 8 8 8 7 8 8 8 9 10 10 11 12 13 13 14 15 16 16 16 16 16 16 16 15 15 14
20 18 17 15 14 12 12 13 13 13 13 14 13 11 10 9 8 8 7 7 7 7 6 7 7 6 6 5 4 2 1 1 3 4 6 7 8 8 8 8 7 7 7 8 9 10 11 12 12 13 14 15 15 16 16 16 16 16 16 15 14 13 13

ECMWFFLT1_700_spd_138.txt.gz
Wind_Speed
18 19 20 20 19 18 18 18 17 15 13 11 9 7 5 4 4 6 8 9 10 9 8 7 8 8 9 11 12 13 14 15 15 16 17 18 18 20 21 22 23 23 24 24 23 23 21 15 9 8 11 14 17 20 22 23 22 21 20 19 19 19 20
21 22 22 20 19 19 19 18 16 14 12 11 8 6 4 4 4 6 8 8 8 7 7 7 8 9 10 11 12 13 14 15 16 16 17 18 19 20 21 22 23 24 24 24 22 22 22 21 17 13 13 14 14 16 20 23 23 23 21 20 19 19 19
23 22 22 20 20 21 20 17 14 13 11 10 8 6 4 3 4 5 7 7 6 6 7 8 9 10 11 11 12 13 14 15 15 16 17 18 19 19 21 22 23 23 23 21 20 21 22 23 22 20 18 18 15 14 18 21 22 22 22 21 20 20 20
22 22 21 20 20 21 18 14 14 13 10 10 9 7 4 3 3 5 6 6 5 5 6 8 9 10 11 12 13 13 14 15 15 16 17 18 19 20 20 21 22 21 21 20 19 20 22 23 24 23 21 21 20 17 19 20 21 21 21 21 21 21 21
22 21 20 19 19 19 16 14 15 14 11 12 10 7 4 3 3 4 5 5 5 5 6 8 9 10 11 13 13 14 15 15 16 16 17 18 19 20 20 21 21 21 21 21 21 21 22 23 25 25 23 23 23 21 21 21 20 20 21 21 21 20 20
21 22 21 19 19 18 16 14 14 14 14 13 10 7 5 3 3 4 5 5 5 5 6 8 9 11 12 13 14 14 15 16 16 17 18 19 20 20 21 21 21 21 21 21 22 22 23 24 25 25 25 24 24 23 22 22 20 19 20 21 20 20 20
21 23 21 20 19 18 17 16 15 15 14 12 9 7 5 4 4 4 5 5 5 5 7 9 10 11 12 13 14 15 16 17 18 19 19 20 21 21 21 22 21 21 21 22 22 22 23 24 25 26 26 25 24 24 23 22 21 19 18 19 19 19 19
22 23 22 21 19 18 18 18 17 17 14 10 9 8 6 5 5 4 5 5 5 6 8 9 11 12 13 13 14 15 16 18 18 19 20 20 21 21 21 22 22 21 22 22 22 22 22 24 25 26 26 26 26 25 23 21 20 19 18 18 18 19 19
22 23 23 22 20 20 19 19 19 16 11 9 9 8 7 6 5 4 4 5 6 8 8 10 12 13 13 14 15 16 17 18 19 20 21 21 21 22 22 22 22 22 22 21 21 21 22 23 24 24 25 27 28 28 26 22 18 17 19 18 17 18 19
23 23 23 22 22 21 20 20 19 14 10 10 10 8 8 8 6 5 5 7 8 8 9 11 12 13 14 15 15 17 17 19 20 21 22 22 22 22 22 22 22 22 21 21 20 21 21 21 22 24 25 27 29 29 28 25 19 17 18 20 19 18 18
24 24 23 22 22 22 22 22 18 12 10 10 9 8 9 9 7 6 6 8 8 9 11 12 13 14 14 15 16 17 18 19 20 21 22 23 23 23 23 23 23 22 21 21 20 20 20 21 22 24 26 27 28 28 27 26 22 18 18 20 20 20 18
25 24 22 22 23 23 23 21 15 11 10 10 8 9 9 9 8 7 7 8 8 10 12 12 13 13 14 15 16 17 19 20 21 21 22 23 24 25 24 24 23 22 22 21 21 21 21 22 23 24 26 27 27 26 25 24 23 20 20 21 20 21 20
24 24 22 22 22 23 23 18 12 11 11 9 8 9 10 9 9 8 7 8 9 10 12 12 12 13 15 16 17 18 19 20 21 22 22 23 25 26 25 24 24 23 22 22 22 22 22 22 22 23 25 26 25 25 23 23 23 21 21 22 21 21 21
22 23 22 22 22 23 20 14 12 12 11 9 9 10 10 10 9 8 8 9 10 11 12 12 12 13 15 16 17 18 19 20 21 22 23 24 25 26 25 24 24 23 22 22 21 21 21 21 21 22 23 24 24 25 24 23 24 22 20 21 22 22 22
19 20 21 22 22 21 16 13 13 12 10 10 10 11 10 9 9 10 10 10 10 10 11 11 12 14 16 17 17 18 19 20 21 22 23 24 25 25 24 23 23 22 21 21 20 20 20 20 21 21 22 22 23 24 24 23 23 23 21 20 21 21 21
20 19 20 22 20 16 14 14 13 11 10 11 12 11 10 10 10 11 11 10 9 10 10 11 12 14 16 17 18 19 20 21 21 22 23 23 24 24 23 22 22 21 20 20 19 19 19 19 20 20 21 22 22 22 23 23 22 22 22 21 21 20 20
22 21 21 20 18 16 15 14 12 11 12 12 12 11 11 11 12 12 11 10 9 8 9 10 12 14 16 17 19 20 21 21 22 22 22 23 23 23 22 21 21 20 19 19 19 18 18 19 19 19 20 21 21 21 21 21 21 22 22 21 21 21 20
25 24 22 20 19 18 16 13 12 13 12 12 11 11 11 12 11 11 11 9 8 7 8 10 12 15 17 18 20 21 22 22 21 22 22 22 22 22 21 20 20 19 19 18 18 18 18 18 18 19 19 19 19 20 20 20 21 21 22 21 21 21 21
24 24 22 21 20 18 15 13 13 13 11 11 11 12 12 11 11 11 10 8 7 6 7 10 12 15 17 19 20 21 22 22 21 22 22 22 22 21 20 19 19 19 19 18 18 18 18 18 18 18 18 18 18 19 19 20 21 21 22 21 21 21 21
23 23 22 21 20 17 15 14 14 12 11 12 13 13 12 11 11 11 9 8 6 6 8 10 13 15 18 19 20 21 22 22 22 22 22 22 21 19 18 18 18 18 18 18 18 17 17 17 17 18 18 18 19 20 20 21 22 22 22 21 21 21 21
23 22 21 21 19 16 15 15 14 12 12 13 14 14 13 12 12 11 9 7 6 6 8 10 13 16 18 20 21 22 22 21 22 22 22 21 20 19 18 18 18 17 17 17 16 16 17 17 17 18 18 18 19 20 20 21 21 21 21 20 20 20 19
24 22 22 21 18 16 16 16 13 13 14 15 14 14 13 12 12 10 9 7 6 6 8 11 14 16 18 20 21 21 21 20 21 21 21 20 19 18 18 18 17 17 17 16 16 15 16 16 17 17 17 17 18 19 19 20 20 20 20 18 18 18 18
24 23 22 20 18 18 17 14 13 14 15 14 13 12 12 12 11 10 9 8 7 7 8 11 14 17 19 20 20 20 20 20 20 20 20 19 18 18 17 17 17 17 17 17 16 15 15 15 16 16 16 16 17 17 18 19 19 20 20 19 18 17 18
24 22 21 19 18 17 14 13 14 14 13 11 10 11 11 11 11 10 9 8 7 7 9 12 14 16 18 18 19 19 19 19 20 19 19 18 18 17 17 17 17 17 16 17 17 16 16 16 16 16 15 16 16 17 18 18 19 19 20 20 19 18 18
21 19 18 17 17 15 13 13 12 10 9 8 9 10 11 11 11 10 10 8 7 8 9 12 14 15 16 17 18 18 18 19 19 19 18 18 18 18 17 16 17 17 16 17 17 17 17 17 16 16 16 16 16 17 18 18 19 19 19 20 19 19 18
19 18 18 17 16 15 13 11 8 6 7 8 9 10 11 11 11 10 10 8 8 8 10 12 13 14 15 16 17 18 18 18 18 17 17 17 17 17 17 17 17 16 16 17 18 18 17 17 16 15 16 16 16 17 18 18 19 19 19 20 19 19 18
19 19 19 17 16 15 12 7 4 4 6 8 9 10 10 11 11 10 9 9 8 9 10 12 13 14 15 15 16 17 17 17 16 16 16 16 17 17 18 17 17 16 16 16 16 16 15 15 16 16 16 17 17 17 17 18 19 19 19 19 19 19 18
20 20 19 17 16 14 10 5 3 4 6 8 9 10 11 11 11 11 10 9 9 9 10 11 12 13 15 15 15 16 16 16 15 15 15 16 16 17 17 17 16 15 14 13 13 14 15 15 16 16 16 17 17 17 17 18 18 18 19 19 19 18 17
19 19 19 18 17 13 8 5 4 5 7 9 10 11 11 11 11 11 10 9 9 9 10 10 11 12 14 15 15 15 15 15 14 15 15 15 15 15 14 14 13 12 12 12 13 15 15 15 15 15 16 16 16 16 17 18 18 18 19 19 19 19 18
20 20 20 19 16 12 8 6 5 6 8 10 10 11 11 11 12 12 11 10 10 10 10 10 10 11 13 14 14 14 14 14 14 14 14 13 13 11 10 10 11 12 13 13 14 14 14 15 15 15 16 16 16 17 18 18 18 19 19 19 20 20 20
22 21 21 19 15 12 9 7 6 7 9 10 10 11 11 12 13 12 11 11 11 10 10 9 9 10 12 13 13 13 13 13 13 13 12 10 9 8 8 9 11 12 13 13 13 13 14 15 15 16 16 16 17 17 17 18 18 19 19 19 20 20 20
23 22 22 19 15 13 11 9 8 8 10 10 11 11 12 13 13 12 12 12 12 11 9 8 9 10 11 11 11 12 12 12 12 10 9 7 7 7 8 10 11 11 12 12 13 13 14 14 15 16 16 16 16 16 16 17 17 17 17 18 18 19 20
23 23 21 18 15 13 11 10 10 10 11 11 11 12 13 13 13 13 13 13 12 10 8 8 9 9 9 10 10 11 11 10 9 7 6 5 6 8 9 10 10 11 11 12 13 13 14 14 14 14 15 15 16 16 16 16 16 16 16 17 17 18 19
22 23 20 17 15 12 10 11 12 12 12 12 12 13 13 13 13 13 13 13 11 9 8 8 9 9 9 9 9 9 8 6 5 4 4 5 7 9 10 11 11 11 12 12 13 13 14 14 14 14 14 15 15 16 16 16 16 16 17 17 18 18 18
22 21 19 16 14 12 11 13 14 14 14 13 13 13 13 13 13 13 13 11 9 8 8 8 8 8 8 8 8 7 5 3 3 3 3 5 7 9 10 11 11 12 12 12 13 13 14 14 15 15 15 15 15 16 16 17 17 17 17 18 18 18 17
22 21 18 16 14 13 14 16 16 16 15 14 13 13 13 13 13 12 11 9 8 8 7 6 6 7 7 7 6 4 2 1 2 3 3 5 7 9 10 11 12 12 12 13 13 13 14 14 14 14 15 15 16 16 16 16 17 17 17 17 17 16 16
20 20 18 16 15 15 16 17 17 16 16 14 13 13 13 12 11 10 9 8 8 8 7 6 6 6 5 4 3 3 2 2 2 2 4 5 7 8 9 10 11 12 12 13 13 13 13 13 14 14 14 15 15 15 15 15 15 15 15 15 15 15 14

ECMWFFLT1_700_spd_141.txt.gz
Wind_Speed
16 15 16 17 19 20 21 21 20 19 18 16 14 12 10 8 7 7 7 7 7 5 5 4 4 6 7 8 9 11 12 12 13 13 14 15 15 16 17 17 18 18 19 20 20 22 22 18 13 10 12 15 16 18 20 20 21 22 22 21 21 21 22
19 19 19 19 20 21 21 21 21 20 18 16 13 11 10 8 7 6 6 6 5 4 3 4 5 6 7 9 10 11 12 13 14 14 14 15 15 16 17 17 18 19 19 20 21 22 24 24 20 15 14 14 13 14 18 19 21 23 23 22 21 20 21
21 22 22 22 21 21 22 22 21 19 17 15 13 11 10 7 6 5 5 4 3 3 3 4 6 7 8 10 11 12 12 13 14 14 15 16 17 18 19 19 20 20 21 21 22 23 24 25 24 21 20 19 14 10 14 18 20 23 23 22 20 20 20
22 22 22 22 21 22 23 22 20 19 17 15 13 11 9 6 5 5 4 4 3 3 3 5 6 8 9 10 11 12 13 13 14 15 16 17 19 20 20 21 21 21 21 21 21 22 23 24 25 23 22 22 19 14 13 16 19 23 24 23 21 20 20
22 21 20 20 21 22 22 21 19 18 16 14 11 9 7 5 5 4 4 4 3 2 4 5 6 8 9 10 11 12 13 13 14 15 17 18 19 20 21 21 22 22 22 22 22 22 22 23 24 25 24 23 22 17 15 16 18 21 24 24 22 21 20
21 20 20 20 21 21 20 19 17 15 15 12 9 7 5 4 4 4 4 4 3 3 4 5 6 8 9 10 11 12 13 14 15 16 17 18 19 20 21 21 22 22 22 22 22 22 23 23 23 25 25 25 23 20 17 18 19 19 22 23 22 21 20
20 20 21 21 21 22 20 18 15 14 14 11 8 7 5 4 4 5 5 4 4 4 5 6 7 8 9 10 12 13 14 15 16 17 18 18 19 20 21 21 21 22 22 22 22 22 22 22 23 24 25 25 24 22 19 19 19 19 20 21 21 21 21
19 21 22 22 23 22 20 18 15 15 15 12 8 7 6 4 5 5 6 5 5 5 6 7 8 8 10 11 12 14 15 16 17 18 18 19 20 20 21 21 22 22 21 21 21 21 21 21 22 23 25 26 26 24 22 19 18 18 19 19 20 21 21
20 21 23 24 24 23 20 18 16 16 16 13 9 8 6 4 5 6 6 6 6 5 6 7 8 9 10 11 13 14 15 16 17 18 19 19 20 21 21 21 22 22 21 21 21 20 20 21 22 23 24 26 27 26 24 21 18 17 18 18 18 19 20
20 22 23 24 24 22 20 19 18 18 17 13 10 8 6 5 5 6 7 7 6 6 6 7 8 8 10 11 13 15 16 17 18 18 19 20 20 21 21 21 21 21 21 21 20 20 20 21 21 22 23 24 26 26 26 23 19 17 18 19 19 19 19
20 22 24 24 23 21 20 19 19 19 16 12 10 9 7 6 6 6 7 7 7 6 6 7 7 8 9 11 13 15 16 17 19 19 20 20 20 20 21 21 21 21 21 21 20 20 20 21 21 21 22 23 24 25 26 25 21 19 19 20 21 21 20
21 21 23 24 23 21 19 19 20 19 16 13 10 9 8 7 6 7 7 8 7 6 6 6 7 8 9 11 14 16 17 19 20 20 21 21 21 21 21 22 22 22 21 21 21 21 20 20 20 21 21 21 23 23 24 25 23 20 21 21 21 22 21
20 21 22 23 24 22 20 19 20 19 17 13 11 10 9 7 7 7 8 8 8 7 6 6 6 8 9 11 14 16 18 20 21 22 22 22 22 22 22 22 22 22 22 21 20 20 20 20 20 20 21 21 22 23 23 24 23 21 21 22 22 21 21
21 21 22 24 24 22 21 21 20 20 18 13 11 10 9 7 7 8 9 9 8 7 6 6 6 7 9 12 14 17 19 20 22 23 23 23 22 23 23 23 22 22 21 20 20 19 19 19 20 20 21 21 22 22 22 23 23 20 19 20 22 22 21
20 21 23 23 23 22 22 22 21 20 16 12 11 10 8 8 8 9 10 10 8 7 7 6 6 8 9 12 14 17 19 21 23 24 24 23 23 23 23 22 22 21 20 19 19 19 19 19 19 19 20 21 22 22 22 21 21 20 19 19 20 21 22
20 21 23 23 22 22 22 23 22 18 14 12 11 10 9 9 10 10 10 10 9 8 7 6 7 8 10 12 14 17 19 21 23 23 23 22 22 22 22 21 20 19 19 19 18 18 18 19 19 20 20 21 21 22 22 21 21 21 21 20 20 20 21
20 21 22 22 22 22 22 22 19 15 13 13 12 10 10 11 11 11 10 10 9 9 8 7 7 8 10 12 15 17 20 21 23 23 22 22 22 22 21 20 20 19 18 19 18 19 19 19 19 20 20 20 21 21 21 22 22 22 22 22 21 21 21
20 21 22 22 21 22 22 20 16 13 13 13 11 10 11 12 11 11 10 10 10 10 9 8 8 9 10 12 15 18 20 21 22 22 22 21 21 21 21 20 19 19 18 18 18 19 19 19 20 20 20 21 21 21 22 22 23 23 23 22 21 21 21
22 22 22 21 21 21 21 18 14 13 13 12 11 11 12 12 11 11 11 11 11 11 10 9 8 9 11 13 15 17 19 20 21 21 21 21 21 21 20 19 18 18 18 18 18 18 19 19 20 20 21 21 22 22 22 23 23 23 23 23 22 22 21
24 24 24 22 21 20 19 16 15 15 13 11 11 12 12 12 12 12 12 12 13 12 11 10 9 10 11 13 15 17 18 19 20 21 22 22 21 20 19 18 17 17 17 17 18 18 19 19 20 20 21 21 22 22 23 23 24 24 24 24 24 23 22
25 26 26 24 21 20 18 16 17 16 13 12 12 12 12 12 13 13 13 13 14 13 12 11 10 10 11 13 15 16 18 18 19 20 21 21 20 19 18 17 17 17 17 17 17 17 18 18 19 19 20 21 22 23 23 23 24 25 25 25 25 24 23
24 25 24 23 21 20 19 18 18 15 14 13 13 13 14 14 14 14 14 14 14 14 13 11 10 10 11 13 15 16 17 18 19 20 20 20 19 18 17 17 16 16 16 16 16 16 16 17 17 18 20 21 22 22 22 23 23 24 24 24 24 24 23
23 23 22 22 22 21 21 20 17 15 15 14 14 14 15 15 15 14 14 15 15 14 13 11 10 10 12 13 15 16 16 17 19 19 18 18 18 17 17 16 16 16 16 17 17 16 16 16 16 17 18 18 19 19 20 21 21 22 22 22 23 23 22
23 24 23 23 23 22 21 19 16 16 15 14 15 15 15 14 14 14 15 15 15 14 13 12 11 11 12 13 15 15 16 17 18 18 17 16 16 16 16 16 16 16 16 16 16 16 15 15 15 15 16 16 17 18 19 19 20 21 21 22 22 23 22
23 25 24 24 23 21 20 18 17 16 15 15 15 14 13 13 13 14 15 15 14 14 13 12 11 11 12 14 14 15 16 17 17 17 16 15 15 15 15 15 15 15 15 15 15 14 14 14 14 15 15 16 18 18 19 19 20 21 22 22 22 23 23
23 25 25 24 22 21 20 18 17 16 15 14 13 12 11 12 13 14 14 14 14 14 14 13 12 12 13 13 14 14 15 16 16 16 15 14 14 14 15 15 14 14 14 13 13 13 13 14 15 16 16 17 18 19 19 20 21 22 22 22 22 22 22
22 24 25 24 23 21 20 18 16 14 13 12 11 11 11 12 13 14 14 14 14 14 14 13 12 12 13 13 13 14 15 16 15 14 14 14 14 14 13 13 13 12 12 12 13 13 14 15 16 16 17 17 18 19 20 21 22 21 21 22 22 22 22
22 23 24 23 22 21 19 16 14 13 12 12 11 11 12 13 13 14 13 13 14 14 13 13 12 13 13 13 14 14 15 14 13 13 14 14 13 12 11 11 11 11 12 12 13 14 14 15 16 16 17 17 18 19 20 21 21 21 21 21 21 21 21
23 22 22 21 21 19 17 15 15 14 13 12 12 13 13 13 12 13 13 13 13 13 13 13 13 13 13 13 14 14 13 13 12 13 13 12 12 11 10 9 10 11 12 12 13 14 14 15 16 17 18 18 18 19 20 21 21 21 21 21 21 21 21
23 22 21 20 19 18 18 17 17 16 14 14 13 13 12 12 12 13 13 13 12 12 12 13 13 13 12 13 13 13 12 11 12 12 11 10 10 9 9 9 9 10 12 12 13 14 15 16 17 18 18 19 20 20 20 20 21 21 21 21 21 21 21
24 23 21 20 19 19 20 19 18 16 15 14 14 12 11 11 12 13 13 12 12 12 12 13 13 12 12 12 12 11 10 10 10 10 8 8 8 8 8 9 10 11 12 12 13 15 16 17 17 18 19 19 19 20 20 20 20 21 21 21 21 21 21
27 26 24 22 21 20 20 19 18 16 15 14 13 12 12 12 13 13 12 11 11 11 12 13 12 12 11 11 11 10 10 9 8 7 7 7 6 7 7 9 10 11 12 13 14 15 16 16 17 17 18 18 19 19 19 20 20 20 20 20 20 20 20
27 28 26 25 23 22 21 20 18 16 15 14 13 13 12 13 13 12 11 11 11 11 11 12 12 11 11 11 10 9 9 8 6 5 5 5 6 6 6 8 10 11 12 13 14 15 15 16 16 16 17 18 18 19 20 20 19 19 19 19 19 19 20
21 21 21 20 19 18 20 19 17 15 15 15 14 14 14 13 12 11 11 10 10 10 11 11 11 11 10 10 9 8 7 6 5 4 4 5 5 5 6 8 9 10 12 13 14 15 15 15 16 16 17 17 18 19 20 20 20 19 19 19 19 19 19
19 19 18 17 15 15 18 17 15 15 16 16 16 15 14 13 12 11 10 10 9 10 10 11 11 10 10 9 8 7 6 5 4 4 4 5 5 4 5 7 9 10 11 13 14 14 15 15 16 16 16 17 18 18 19 19 19 19 19 19 19 19 18
19 20 19 17 15 16 17 15 14 15 16 16 16 15 14 12 11 10 10 9 9 9 10 10 10 10 9 8 7 6 5 4 4 4 4 4 4 4 5 7 9 10 11 13 13 14 15 15 16 16 16 17 17 17 17 17 18 18 17 18 18 18 17
16 17 17 17 17 17 16 14 14 15 16 16 16 14 13 12 11 10 9 9 9 10 10 10 10 9 9 8 6 5 4 4 4 4 4 3 2 4 6 7 9 10 12 13 13 14 15 15 16 16 16 16 16 16 16 15 16 16 16 16 16 16 16